CZ-6A DEB, 54409

Orbit data source: Space-Track

CZ-6A DEB, 54409 is space debris in SSO originally from a launch on Fri, 11 Nov 2022 UTC launched from the Taiyaun Space Center, China (TSC). Debris objects in space refer to the collection of defunct objects orbiting the Earth. Examples of debris include non-operational satellites, rocket bodies, and fragments generated from explosions, collisions, or faulty payload assembly.

Loading next visibility...
Identifier
54409, 2022-151EH
Orbit
SSO
Country
Flag of CNCN / PRC
Related business
Manufacturer
SAST
Mission
Spacecraft
Bus & Motor
Unknown
Mass
Unknown
Launch date (UTC)
2022-11-11 (4 years ago)
Launch vehicle
Unknown
Launch site
Taiyaun Space Center, China (TSC)
Object type
Payload
Rocket body
Debris
Shape & HBR
Unknown shape, 0.1 m
Radar Cross Section
Small (<0.1 m²)

Expand to show TLE details & history
Last TLE update: 2 days ago

TLE from 2 days ago
0 CZ-6A DEB
1 54409U 22151EH  26235.43692045  .00002543  00000-0  10422-2 0  9999
2 54409  98.7531 236.3403 0135313   3.7115 356.5035 14.23167337195213
Epoch: 2026-08-23T10:29Z
TLE epoch observation values (Epoch: 2026-08-23T10:29:09.926Z)
Latitude
-0.00001°
Longitude
107.31595°
Altitude
720.418 km
Speed
7.546 km/s
True Right ascension
15h 45m 21s
True Declination
0° 00' 00"
Sunlit
Object was in daylight at epoch
Visualization orbit readout
Latitude
Unknown
Longitude
Unknown
Altitude
Unknown
Speed
Unknown
Apparent Right ascension
Unknown
Apparent Declination
Unknown
Sunlit
N/A
Visualization observer readout
Local Sidereal Time
14:53:01
Azimuth
Unknown
Elevation
Unknown
Doppler factor
Unknown
Orbital elements
Apogee altitude
909.106 km
Perigee altitude
714.527 km
Semi-major axis
7,189.954 km
Eccentricity
0.01353
Inclination
98.7531°
RAAN
236.3403°
Arg. of periapsis
3.7115°
True anomaly
356.40731°
Mean anomaly
356.5035°
Eccentric anomaly
356.45557°
Mean motion
3.56003 °/min
Orbital period
101.12 mins
BSTAR
0.0010422
Loading maneuver chart data...
Computing Atmospheric mass density...
Loading historical data...
Loading historical data...
Loading historical data...
Loading historical data...
Loading historical data...
Loading historical data...
Loading historical data...

Documentation

Showing up to 5 results
|